Tracking 30743 objects as of 20-Jun-2025
HD Live streaming from Space Station
objects crossing your sky now

ATLAS 3B CENTAUR R/B

Track ATLAS 3B CENTAUR R/B now!
10-day predictions


NORAD ID: 28538
Int'l Code: 2005-004B
Perigee: 942.7 km
Apogee: 1,265.3 km
Inclination: 63.8 °
Period: 107.2 minutes
Semi major axis: 7475 km
RCS: Unknown
Launch date: February 3, 2005
Source: United States (US)
Launch site: AIR FORCE EASTERN TEST RANGE (AFETR)

Note: This is a ROCKET BODY
Your satellite tracking list
Your tracking list is empty




NASA's NSSDC Master Catalog

Two Line Element Set (TLE):
1 28538U 05004B   25171.30235817 -.00000032  00000-0  83756-4 0  9999
2 28538  63.8235 120.9597 0215801 275.6303  82.0154 13.43337788 56559
Source of the keplerian elements: McCants